Starlink 34044

operational
NORAD ID: 63846 Int'l Des: 2025-093 Owner: SPXS Country: US Constellation: starlink
LEOCIRCULAR

关于 Starlink 34044

正在加载描述...

实时位置

正在加载3D地球...

即将过境

高度历史

Altitude vs Time

uPlot chart will show altitude changes over time

两行轨道根数

1 63846U 25093L 26062.20732657 .00022041 00000-0 80785-3 0 9994
2 63846 42.9995 114.2618 0001133 228.7747 131.3007 15.27590239 46766
Epoch: Mar 3, 2026 • Age: 9 hours

当前状态

高度 482.6 km
速度 7.63 km/s
星下点 23.66°N, 26.75°W
发射日期 May 7, 2025
运行时间 0.8 years
类型 internet

技术详情

分类 Payload
质量 575.00 kg
干质量 530.00 kg
总质量 575.00 kg
长度 0.30 m
直径 4.10 m
跨度 29.00 m
形状 Box + pan
制造商 SPXS
平台类型 Starlink V2MO
阶段状态 In Orbit
所有者/国家 SPXS/US

大型星座

Loading constellations...